{"data":{"norad_id":63175,"intl_designator":"2025-046S","name":"QIANFAN-89","alt_names":[],"object_type":"PAYLOAD","status":"ACTIVE","operator":null,"country":"PRC","launch_date":"2025-03-11","launch_site_code":"WSC","launch_vehicle":null,"mission":null,"orbit_class":"UNKNOWN","rcs_meters":null,"size_class":null,"mass_kg":null,"dimensions":null,"purposes":[],"wikipedia_slug":null,"has_3d_model":false,"image_url":null,"decayed_at":null,"tle_current":{"epoch":"2026-09-22T21:47:46.223232Z","epoch_age_seconds":102905,"freshness":"FRESH","line1":"1 63175U 25046S   26265.90817388  .00000093  00000+0  12445-3 0  9994","line2":"2 63175  88.9641 290.5331 0017424  31.1110 329.1069 13.51020579 85778","mean_motion":13.51020579,"eccentricity":0.0017424,"inclination_deg":88.9641,"raan_deg":290.5331,"arg_perigee_deg":31.111,"mean_anomaly_deg":329.1069,"bstar":0.00012445,"rev_number":8577,"period_min":106.58608924121,"perigee_km":1055.5309344703,"apogee_km":1081.4809958754,"semimajor_km":7446.6429651729,"source":"CELESTRAK","updated_at":"2026-09-23T09:00:21.883049Z"}}}